Powrót do katalogu

DELTA 1 DEB

AktywnyPO
NORAD 42643·DEBRIS·🇺🇸 United States

Wystrzelony Jun 12, 1975 z Vandenberg Space Force Base

Loading…

Następne Przeloty (najbliższe 24 godziny)

TLE

ŚwieżeSource: Space-Track

Epoka: Sep 14, 2026, 07:45 UTC

1 42643U 75052MC  26257.32344887  .00000022  00000-0  18009-3 0  9994
2 42643  99.6507  80.7094 0295475 117.1731 245.9817 12.88771009 39177

Śledź DELTA 1 DEB w czasie rzeczywistym z AllMySat

Download on the App Store